User: anonymous   Login
Location: Unspecified
(0.0000°N, 0.0000°E)
Time: 22:17:32
(UTC+00:00)
Language:

OBJECT H - Orbit

View from above orbital plane
View from above orbital plane
View from above satellite
View from above satellite

Ground track
Ground track

The orbit data is extracted from the following two-line orbital elements,

1 42832U 17042H   24148.48310919  .00003621  00000-0  31455-3 0  9990
2 42832  97.3829 332.1076 0012844 133.9839 226.2445 14.97528616374150
Epoch (UTC): 27 May 2024 11:35:40
Eccentricity: 0.0012844
inclination: 97.3829°
perigee height: 565 km
apogee height: 583 km
right ascension of ascending node: 332.1076°
argument of perigee: 133.9839°
revolutions per day: 14.97528616
mean anomaly at epoch: 226.2445°
orbit number at epoch: 37415

The dashed part of the orbit path shows where the satellite is in the earth's shadow,  

DLR